Miscellaneous Local Product
Issued by NWS Hastings, NE

Home | Current Version | Previous Version | Text Only | Print | Product List | Glossary Off
Versions: 1 2 3 4 5 6 7 8 9 10 11 12 13 14 15 16 17 18 19 20 21 22 23 24 25 26 27 28 29 30 31 32 33 34 35 36 37 38 39 40 41 42 43 44 45 46 47 48 49 50

000
AXUS43 KGID 191102
MISGRI

GID CWA HOURLY WEATHER ROUNDUP
NATIONAL WEATHER SERVICE HASTINGS NE
600 AM CDT SUN APR 19 2015

NOTE: "FAIR" INDICATES FEW OR NO CLOUDS BELOW 12,000 FEET WITH NO
SIGNIFICANT WEATHER AND/OR OBSTRUCTIONS TO VISIBILITY.

...SOUTH CENTRAL NEBRASKA...

CITY           SKY/WX    TMP DP  RH WIND       PRES   REMARKS
GRAND ISLAND   LGT RAIN  52  49  89 N6        29.78R
HASTINGS       LGT RAIN  51  48  89 N14       29.77R
KEARNEY        CLOUDY    50  46  87 N17       29.79R
ORD            CLOUDY    49  45  86 NW20      29.80R
YORK           LGT RAIN  52  50  93 NW7       29.76R
AURORA         DRIZZLE   52  50  95 W3        29.77R
LEXINGTON      LGT RAIN  51  47  87 N14       29.82S
HOLDREGE       LGT RAIN  50  48  93 NW3       29.80R
HEBRON         CLOUDY    53  50  89 NE3       29.76F

...NEBRASKA PANHANDLE...

CITY           SKY/WX    TMP DP  RH WIND       PRES   REMARKS
CHADRON        PTCLDY    36  32  85 NW7       30.07R WCI  30
ALLIANCE       MOCLDY    41  32  70 N18       30.02R
SCOTTSBLUFF    MOCLDY    40  32  73 NW17      30.09R WCI  31
SIDNEY         CLOUDY    41  32  70 N26G33    30.02R

...WESTERN AND NORTH CENTRAL NEBRASKA...

CITY           SKY/WX    TMP DP  RH WIND       PRES   REMARKS
VALENTINE      CLOUDY    45  40  82 N18G28    29.92R
AINSWORTH      LGT RAIN  46  45  94 N25G32    29.90R
ONEILL         CLOUDY    48  47  95 NW24G31   29.83S FOG
BROKEN BOW     LGT RAIN  49  46  90 N20G28    29.83R
IMPERIAL       LGT RAIN  46  42  86 N24       29.92R
NORTH PLATTE   LGT RAIN  47  44  90 N22G30    29.87R
MCCOOK         RAIN      50  47  89 NW17      29.85R FOG

...EASTERN NEBRASKA...

CITY           SKY/WX    TMP DP  RH WIND       PRES   REMARKS
NORFOLK        NOT AVBL
SO SIOUX CITY  FOG       55  53  93 CALM      29.73S VSB 1/2
TEKAMAH        FOG       55  55 100 SW3       29.73F VSB 1/2
COLUMBUS       CLOUDY    54  45  71 N15G24    29.76S
ALBION         CLOUDY    51  46  82 NW17G25   29.78R
OMAHA EPPLEY   FOG       56  56 100 CALM      29.73F VSB 1/4
OFFUTT AFB     FOG       55  55 100 CALM      29.72F VSB 1/2
MILLARD        FOG       56  55  97 CALM      29.73F VSB 1/2
LINCOLN        LGT RAIN  55  52  89 SW8       29.75F
NEBRASKA CITY  FOG       56  56  99 W5        29.73S VSB 1/4
BEATRICE       LGT RAIN  53  52  95 N5        29.75F
FALLS CITY     LGT RAIN  54  51  90 W7        29.72F

...NORTHERN KANSAS...

CITY           SKY/WX    TMP DP  RH WIND       PRES   REMARKS
GOODLAND       CLOUDY    45  44  97 N10       29.90S
HILL CITY      RAIN      51  49  92 N12       29.82S FOG
NORTON         LGT RAIN  50  46  87 CALM      29.82R
PHILLIPSBURG   LGT RAIN  55  50  82 NW8       29.80S
SMITH CENTER   DRIZZLE   50  48  93 N3        29.80S
BELOIT         CLOUDY    50  48  93 N7        29.76F
HAYS           MOCLDY    48  41  76 N14       29.79R
RUSSELL        MOCLDY    48  47  96 N8        29.77R
CONCORDIA      CLOUDY    52  52 100 NW5       29.77F
SALINA         CLOUDY    52  49  89 CALM      29.74F
TOPEKA         CLOUDY    54  53  97 CALM      29.72R



USA.gov is the U.S. government's official web portal to all federal, state and local government web resources and services.